Location: Casilda
(33.0440°S, 61.1680°W)
Time: 15:50:30
(UTC-03:00)

ISS - Pass Details

Date: 27 February 2021
Orbit: 417 x 422 km, 51.6° (Epoch: 27 February)

Event Time Altitude Azimuth Distance (km) Brightness Sun altitude
Rises 21:54:27 0° 211° (SSW) 2,402 1.0 -26.8°
Reaches altitude 10° 21:57:12 10° 188° (S) 1,530 -0.5 -27.3°
Enters shadow 21:57:35 11° 182° (S) 1,442 -0.7 -27.3°
